STARLINK-2500 (48485 NORAD) Tracking and Keplerian Element Data

This shows tracking and keplerian element data for the satellite.

Feedback or suggestion? Click here.




ElementValue
Catalog48485
NameSTARLINK-2500
Epoch Orbit1447
Epoch Day215.12241407
Epoch Year2021
RAAN181.4801
Inclination53.0544
Eccentricity0.0001757
Argument of Perigee70.7576
Mean Anonmoly289.3603
Mean Motion15.06399293
Decay Rate6.4E-06
L11 48485U 21040BK 21215.12241407 .00000640 00000-0 61884-4 0 9999
L22 48485 53.0544 181.4801 0001757 70.7576 289.3603 15.06399293 14471

Live tracking and technical data element details for STARLINK-2500 (NORAD 48485). STARLINK-2500 can be tracked NOW for your location showing map with azimuth and elevation plus other details from your city location.

Track the satellite on the map from your city or location and see movement details for azimuth, elevation, latitude, longitude, range, height, and movement on the map or in text.







IsCatalogInMostPopularTable: catalog: 48485, numindb: 29
Update: records affected: 1



GetName: 48485 STARLINK-2500

Hit Count: updated at: Tue, 03 Aug 2021 22:53:08 GMT